Tracking 28799 objects as of 17-Apr-2024
HD Live streaming from Space Station
objects crossing your sky now

STARLINK-1665

Track STARLINK-1665 now!
10-day predictions
STARLINK-1665 is classified as:


NORAD ID: 46356
Int'l Code: 2020-062AH
Perigee: 553.6 km
Apogee: 555.2 km
Inclination: 53.1 °
Period: 95.6 minutes
Semi major axis: 6925 km
RCS: Unknown
Launch date: September 3, 2020
Source: United States (US)
Launch site: AIR FORCE EASTERN TEST RANGE (AFETR)
Your satellite tracking list
Your tracking list is empty




NASA's NSSDC Master Catalog

Two Line Element Set (TLE):
1 46356U 20062AH  24108.51854868  .00011321  00000-0  77802-3 0  9999
2 46356  53.0537 239.4376 0001213  89.9335 270.1793 15.06385366200315
Source of the keplerian elements: AFSPC